This demonstration page uses our WeatherBlox Daily Observations layout. Learn more.

Left ArrowRight Arrow

Hourly Observations for July 2, 2015

Temp ( °F °C ) Dew Point ( °F °C ) Humidity (%) Winds ( mph kmh ) Pressure ( in mb ) Visibility ( mi km ) Precip ( " mm )
12:53 am 00:53 Clear 77 25 63 17.2 62 62 SSE 13 20 29.84 1011 10 16 0.00 0.00
1:53 am 01:53 Clear 75 23.9 64 17.8 69 69 SE 12 19 29.84 1011 10 16 0.00 0.00
2:53 am 02:53 Clear 73 22.8 65 18.3 76 76 SE 10 17 29.83 1010 10 16 0.00 0.00
3:53 am 03:53 Clear 73 22.8 65 18.3 76 76 SE 12 19 29.81 1010 10 16 0.00 0.00
4:53 am 04:53 Clear 71 21.7 65 18.3 81 81 SE 10 17 29.81 1010 10 16 0.00 0.00
5:53 am 05:53 Clear 71 21.7 65 18.3 81 81 ESE 10 17 29.81 1010 10 16 0.00 0.00
6:53 am 06:53 Sunny 70 21.1 65 18.3 84 84 SE 10 17 29.83 1010 10 16 0.00 0.00
7:53 am 07:53 Sunny 71 21.7 65 18.3 81 81 ESE 8 13 29.85 1011 10 16 0.00 0.00
8:53 am 08:53 Mostly Sunny 73 22.8 65 18.3 76 76 ESE 13 20 29.86 1011 10 16 0.00 0.00
9:53 am 09:53 Sunny 76 24.4 64 17.8 67 67 SE 12 19 29.87 1011 10 16 0.00 0.00
10:53 am 10:53 Sunny 78 25.6 64 17.8 62 62 ESE 9 15 29.86 1011 10 16 0.00 0.00
11:53 am 11:53 Sunny 83 28.3 64 17.8 53 53 ESE 10 17 29.86 1011 10 16 0.00 0.00
12:53 pm 12:53 Sunny 87 30.6 63 17.2 45 45 E 8 13 29.85 1011 10 16 0.00 0.00
1:53 pm 13:53 Sunny 88 31.1 62 16.7 42 42 ESE 13 20 29.83 1010 10 16 0.00 0.00
2:53 pm 14:53 Sunny 91 32.8 61 16.1 37 37 SE 9 15 29.81 1010 10 16 0.00 0.00
3:53 pm 15:53 Sunny 90 32.2 60 15.6 37 37 ESE 9 15 29.80 1009 10 16 0.00 0.00
4:53 pm 16:53 Sunny 92 33.3 58 14.4 32 32 E 6 9 29.78 1009 10 16 0.00 0.00
5:53 pm 17:53 Sunny 92 33.3 60 15.6 34 34 SE 15 24 29.75 1008 10 16 0.00 0.00
6:53 pm 18:53 Sunny 93 33.9 58 14.4 31 31 SE 14 22 29.73 1007 10 16 0.00 0.00
7:53 pm 19:53 Sunny 91 32.8 60 15.6 35 35 SE 15 24 29.76 1008 10 16 0.00 0.00
8:53 pm 20:53 Sunny 87 30.6 60 15.6 40 40 ESE 13 20 29.78 1008 10 16 0.00 0.00
9:53 pm 21:53 Clear 84 28.9 61 16.1 46 46 SE 15 24 29.78 1009 10 16 0.00 0.00
10:53 pm 22:53 Clear 81 27.2 62 16.7 53 53 SE 12 19 29.81 1010 10 16 0.00 0.00
11:53 pm 23:53 Clear 79 26.1 63 17.2 58 58 SE 17 28 29.83 1010 10 16 0.00 0.00

Powered by AerisWeather